Regional Weather Roundup
Issued by NWS Portland, ME

Home | Current Version | Previous Version | Text Only | Print | Product List | Glossary On
Versions: 1 2 3 4 5 6 7 8 9 10 11 12 13 14 15 16 17 18 19 20 21 22 23 24 25 26 27 28 29 30 31 32 33 34 35 36 37 38 39 40 41 42 43 44 45 46 47 48 49 50
000
ASUS41 KGYX 280310
RWRGYX
WEATHER ROUNDUP FOR MAINE AND NEW HAMPSHIRE
NATIONAL WEATHER SERVICE GRAY ME
1100 PM EDT SAT MAY 27 2017

MEZ002-005-006-010-012-015-018-020-021-024-026-027-029-280400-
MAINE

CITY           SKY/WX    TMP DP  RH WIND       PRES   REMARKS
PORTLAND       PTCLDY    50  46  86 SW3       29.96R
SANFORD        CLEAR     46  45  96 CALM      29.96R
BAR HARBOR     PTCLDY    45  43  93 W5        29.97R
WISCASSET      PTCLDY    46  45  96 CALM      29.97R
ROCKLAND       CLEAR     42  41  96 CALM      29.96
FRYEBURG       CLOUDY    52  48  86 E5        29.94R
LEWISTONAUBURN MOCLDY    50  47  89 SE3       29.95R
AUGUSTA        CLOUDY    48  44  86 S3        29.95R
WATERVILLE     PTCLDY    49  46  90 SW6       29.92R
BANGOR         PTCLDY    46  44  93 S3        29.96R
GREENVILLE       N/A     49  46  90 VRB6      29.91R
MILLINOCKET    CLEAR     47  46  97 CALM      29.96R
HOULTON        CLEAR     41  41 100 CALM      29.93S
PRESQUE ISLE   CLEAR     48  43  82 CALM      29.93R
FRENCHVILLE    CLEAR     50  44  80 S9        29.89R
CARIBOU        CLEAR     48  43  82 S7        29.91R
$$

NHZ002-005-008-009-011-012-014-280400-
NEW HAMPSHIRE

CITY           SKY/WX    TMP DP  RH WIND       PRES   REMARKS
PORTSMOUTH     MOCLDY    51  47  87 CALM      29.93R
ROCHESTER      PTCLDY    49  45  86 CALM      29.94R
NASHUA         CLOUDY    57  48  72 E5        29.94R
MANCHESTER     CLOUDY    57  46  66 S6        29.93R
CONCORD        CLOUDY    55  50  83 E3        29.93R
LACONIA        CLOUDY    59  51  75 CALM      29.93R
PLYMOUTH       MOCLDY    54  51  92 CALM      29.91S
BERLIN         CLEAR     47  43  86 CALM      29.92R
WHITEFIELD     PTCLDY    51  47  86 CALM      29.91S
JAFFREY        CLOUDY    59  56  89 S3        29.93S
KEENE          CLOUDY    59  56  89 CALM      29.92S
LEBANON        CLOUDY    58  56  93 S3        29.90F
MT WASHINGTON  FOG       37  37 100 NW22        N/A  VSB 1/16
$$

VTZ005-007-008-280400-
VERMONT

CITY           SKY/WX    TMP DP  RH WIND       PRES   REMARKS
ST JOHNSBURY     N/A     57  53  86 MISG      29.89S
MONTPELIER     CLEAR     51  49  92 S3        29.95F
BURLINGTON     PTCLDY    58  52  80 CALM      29.91R
$$

MAZ007-012-024-CTZ003-RIZ002-NYZ038-NYZ072-280400-
SOUTHERN NEW ENGLAND AND NY

CITY           SKY/WX    TMP DP  RH WIND       PRES   REMARKS
BOSTON         MOCLDY    55  50  83 SE7       29.94S
WORCESTER      CLOUDY    58  51  78 SW7       29.93S
NANTUCKET      PTCLDY    48  44  86 SE3       29.97R
PROVIDENCE     MOCLDY    57  53  86 S7        29.94R
HARTFORD       MOCLDY    60  54  80 S6        29.93R
ALBANY         DRIZZLE   64  56  75 CALM      29.91S
NEW YORK CITY  MOCLDY    63  56  78 SE6       29.92S
$$

ANZ081-ANZ082-ANZ150-NHZ014-MEZ023>029-280400-
COASTAL MARINE OBSERVATIONS

STATION/POSITION TIME  TEMP    WIND        PRES    WAVE
                       AIR SEA DIR/SP/G            HT/PER
                 (UTC) (F)     (DEG/KT/KT) (MB)    (FT/S)
MOUNT DESERT ROC 0300   44                 1014.5R
MATINICUS ROCK   0200   45     260/  8/  8 1014.0R
ISLE OF SHOALS   0200   50     170/ 10/ 11 1013.7R
JEFFREYS LEDGE   0206      49                N/A     3/ 9
CASHES LEDGE BUO 0150   46 48              1014.4    4/ 7
GEORGES BANK BUO 0150   48 48              1012.0    5/ 9
$$

.............KEY..............
   WCI - WIND CHILL
   TC  - TEMPERATURE IN CELSIUS
   VSB - VISIBILITY IN MILES
   HX  - HEAT INDEX
   FAIR- INDICATES FEW OR NO CLOUDS BELOW 12,000 FT, WITH NO
         SIGNIFICANT WEATHER AND/OR OBSTRUCTIONS TO VISIBILITY.






USA.gov is the U.S. government's official web portal to all federal, state and local government web resources and services.